Regional Weather Roundup
Issued by NWS Cleveland, OH

Home | Current Version | Previous Version | Text Only | Print | Product List | Glossary Off
Versions: 1 2 3 4 5 6 7 8 9 10 11 12 13 14 15 16 17 18 19 20 21 22 23 24 25 26 27 28 29 30 31 32 33 34 35 36 37 38 39 40 41 42 43 44 45 46 47 48 49 50

000
ASUS41 KCLE 302102
RWRCLE
OHIO REGIONAL WEATHER ROUNDUP
NATIONAL WEATHER SERVICE CLEVELAND, OH
500 PM EDT THU JUL 30 2015

NOTE: "FAIR" INDICATES FEW OR NO CLOUDS BELOW 12,000 FEET WITH NO
SIGNIFICANT WEATHER AND/OR OBSTRUCTIONS TO VISIBILITY.

OHZ001>008-015>018-024>027-034-035-043-044-302200-
   NORTHWEST OHIO

CITY           SKY/WX    TMP DP  RH WIND       PRES   REMARKS
DEFIANCE       MOSUNNY   86  54  33 NW12G21   30.00F
FINDLAY        SUNNY     85  56  37 W16G23    29.99F
TOLEDO EXPRESS SUNNY     84  58  40 W15G22    29.97F
TOLEDO EXEC    MOSUNNY   85  57  38 W18G26    29.98S
LIMA           MOSUNNY   83  58  42 W16G24    30.02F
$$

OHZ009>014-019>023-028>033-038-089-302200-
   NORTHEAST OHIO

CITY           SKY/WX    TMP DP  RH WIND       PRES   REMARKS
CLE-HOPKINS    MOSUNNY   84  57  39 W16G22    29.98F
CLE-LAKEFRONT  SUNNY     83  61  47 W14       29.95S
CUY CO. ARPT   SUNNY     84  55  37 W16G25    29.97F
LORAIN-ELYRIA  SUNNY     83  56  39 W10G22    29.97F
ASHTABULA      SUNNY     82  52  35 W15G22    29.96S
AKRON-CANTON   MOSUNNY   85  58  39 W12       29.98S
WOOSTER        SUNNY     82  58  43 W13G20    29.99F
MANSFIELD      MOSUNNY   83  57  41 W14G20    30.01F
YOUNGSTOWN     MOSUNNY   84  56  38 W12       29.96S
$$

OHZ042-051>053-060>062-070>072-077>081-302200-
  SOUTHWEST OHIO

CITY           SKY/WX    TMP DP  RH WIND       PRES   REMARKS
CINC-COVINGTON MOSUNNY   84  50  30 NW14G21   30.06F
CINC-LUNKEN    SUNNY     84  58  40 W14G20    30.04F
HAMILTON       SUNNY     85  59  41 NW12G18   30.05F
DAYTON         MOSUNNY   83  58  42 W14       30.05F
WRIGHT-PAT AFB NOT AVBL
DAYTON GENERAL SUNNY     84  57  39 W13       30.04F
WILMINGTON     SUNNY     83  55  38 NW10      30.04F
$$

OHZ036-037-039>041-045>050-054>059-063>069-073>076-082>088-302200-
  CENTRAL AND SOUTHEAST OHIO

CITY           SKY/WX    TMP DP  RH WIND       PRES   REMARKS
COLUMBUS       MOSUNNY   84  58  40 W13G21    30.00F
OSU AIRPORT    SUNNY     83  60  45 W14G23    30.02S
BOLTON FIELD   SUNNY     82  61  47 NW13      30.03F
RICKENBACK AFB SUNNY     83  60  45 W14G20    30.01S
NEWARK         SUNNY     86  59  39 NW12      30.00F
MARION         SUNNY     84  56  38 W14G22    30.01F
LANCASTER      SUNNY     83  61  47 W12       30.02F
ZANESVILLE     SUNNY     84  57  39 NW10      29.99F
NEW PHILLY     MOSUNNY   83  63  50 VRB7      29.98F
$$


USA.gov is the U.S. government's official web portal to all federal, state and local government web resources and services.